This is the latest recevied weather packets stored in our database for station/object DL3CSM-13. If no packets are shown the sender has not sent any weather packets the latest 10 day(s).
| Time | Temp. | Humidity | Pressure | Rain* | Wind** | Luminosity | Snow |
|---|---|---|---|---|---|---|---|
| 1777680911 | 7.22° C | 68% | 1025 hPa | 0 mm | - | - | - |
| 1777680011 | 7.78° C | 67% | 1025 hPa | 0 mm | - | - | - |
| 1777679111 | 8.33° C | 66% | 1025.3 hPa | 0 mm | - | - | - |
| 1777678211 | 8.89° C | 63% | 1025.3 hPa | 0 mm | - | - | - |
| 1777676411 | 10° C | 60% | 1025.3 hPa | 0 mm | - | - | - |
| 1777675511 | 10° C | 60% | 1025.4 hPa | 0 mm | - | - | - |
| 1777674612 | 10.56° C | 58% | 1025.5 hPa | 0 mm | - | - | - |
| 1777673711 | 11.11° C | 55% | 1025.7 hPa | 0 mm | - | - | - |
| 1777672811 | 11.11° C | 54% | 1025.6 hPa | 0 mm | - | - | - |
| 1777671911 | 11.67° C | 53% | 1025.6 hPa | 0 mm | - | - | - |
| 1777671012 | 11.67° C | 52% | 1025.5 hPa | 0 mm | - | - | - |
| 1777668311 | 12.22° C | 51% | 1025.7 hPa | 0 mm | - | - | - |
| 1777666511 | 12.22° C | 51% | 1025.8 hPa | 0 mm | - | - | - |
| 1777665611 | 12.78° C | 49% | 1025.8 hPa | 0 mm | - | - | - |
| 1777664711 | 13.33° C | 47% | 1025.7 hPa | 0 mm | - | - | - |
| 1777663811 | 13.89° C | 45% | 1025.6 hPa | 0 mm | - | - | - |
| 1777662911 | 14.44° C | 44% | 1025.6 hPa | 0 mm | - | - | - |
| 1777662011 | 15° C | 43% | 1025.7 hPa | 0 mm | - | - | - |
| 1777660211 | 16.11° C | 40% | 1025.4 hPa | 0 mm | - | - | - |
| 1777659311 | 16.67° C | 38% | 1025.2 hPa | 0 mm | - | - | - |
| 1777658412 | 16.67° C | 38% | 1025.2 hPa | 0 mm | - | - | - |
| 1777657511 | 17.22° C | 37% | 1025.3 hPa | 0 mm | - | - | - |
| 1777656611 | 17.78° C | 36% | 1025.1 hPa | 0 mm | - | - | - |
| 1777655711 | 18.33° C | 35% | 1025.1 hPa | 0 mm | - | - | - |
| 1777654811 | 19.44° C | 34% | 1025.2 hPa | 0 mm | - | - | - |
* Rain latest hour (hover to see other rain measurements)
** Current wind speed in m/s (hover to see current wind gust speed)